Home   Weather   Lynchburg   Past weeks
Flag for USA

Past Weather in Lynchburg, Virginia, USA — Yesterday and Last 2 Weeks

Now
91 °F

Thunderstorms. Mostly cloudy.


Feels Like: 95 °F
Forecast: 93 / 70 °F
Wind: 9 mph from South

Location: Lynchburg Regional Airport

Current Time: Aug 20, 2019 at 3:31:51 pm

Latest Report: Aug 20, 2019 at 2:54 pm


Visibility: 10 mi

Pressure: 30.05 "Hg

Humidity: 47%

Dew Point: 68 °F

Location of LynchburgLocation

Past Weather in Lynchburg — Graph

°F

Lynchburg Temperature Yesterday

Maximum temperature yesterday: 96 °F (at 1:54 pm)
Minimum temperature yesterday: 70 °F (at 5:54 am)
Average temperature yesterday: 84 °F

High & Low Weather Summary for the Past Weeks

 TemperatureHumidityPressure
High96 °F (Aug 19, 1:54 pm)100% (Aug 7, 5:54 am)30.10 "Hg (Aug 7, 5:54 am)
Low62 °F (Aug 12, 2:54 am)35% (Aug 19, 1:54 pm)29.75 "Hg (Aug 13, 5:54 pm)
Average78 °F72%29.93 "Hg
* Reported Aug 5 2:08 pm — Aug 20 1:54 pm, Lynchburg. Weather by CustomWeather, © 2019

Note: Actual official high and low records may vary slightly from our data, if they occured in-between our weather recording intervals... More about our weather records

Advertising

Lynchburg Weather History for the Previous 24 Hours

Scroll right to see more
 ConditionsComfort  
Time TempWeatherWind HumidityBarometerVisibility
1:54 pm
Tue, Aug 20
93 °FSunny.5 mph46%30.06 "Hg10 mi
12:54 pm92 °FSunny.5 mph49%30.09 "Hg10 mi
11:54 am90 °FSunny.5 mph50%30.10 "Hg10 mi
10:54 am89 °FSunny.No wind52%30.10 "Hg10 mi
9:54 am86 °FSunny.3 mph61%30.10 "Hg10 mi
8:54 am81 °FSunny.No wind72%30.09 "Hg10 mi
7:54 am74 °FSunny.No wind91%30.10 "Hg10 mi
6:54 am69 °FFog.No wind96%30.09 "Hg5 mi
5:54 am70 °FClear.No wind93%30.07 "Hg9 mi
4:54 am71 °FClear.No wind93%30.06 "Hg10 mi
3:54 am71 °FClear.No wind93%30.05 "Hg10 mi
2:54 am71 °FClear.5 mph93%30.05 "Hg10 mi
1:54 am72 °FClear.No wind91%30.04 "Hg10 mi
12:54 am73 °FClear.No wind88%30.05 "Hg10 mi
11:54 pm
Mon, Aug 19
75 °FClear.No wind82%30.06 "Hg10 mi
10:54 pm76 °FClear.5 mph80%30.06 "Hg10 mi
9:54 pm80 °FClear.13 mph69%30.06 "Hg10 mi
8:54 pm80 °FClear.3 mph74%30.02 "Hg10 mi
7:54 pm82 °FSunny.No wind70%30.00 "Hg10 mi
6:54 pm90 °FSunny.3 mph48%29.98 "Hg10 mi
5:54 pm94 °FSunny.3 mph43%29.97 "Hg10 mi
4:54 pm95 °FSunny.5 mph39%29.98 "Hg10 mi
3:54 pm94 °FSunny.3 mph38%29.98 "Hg10 mi
Weather by CustomWeather, © 2019

See weather overview